CW3008 Weather Reports


time (UTC)temp
C
wind
direction
speed
KPH
gust
KPH
rain 1hr
cm
rain 24hr
cm
rain mn
cm
humidity
%
barometer
mb
20260507151534 18 20 0.0 0.0 0.00 0.23 0.20 48 1005.8
20260507150036 17 40 0.0 0.0 0.00 0.23 0.20 50 1005.9
20260507144529 17 32 0.0 0.0 0.00 0.23 0.20 51 1006.0
20260507143027 17 40 0.0 0.0 0.00 0.23 0.20 52 1006.2
20260507141525 17 350 0.0 0.0 0.00 0.23 0.20 52 1006.2
20260507140034 17 346 0.0 0.0 0.00 0.23 0.20 55 1006.2
20260507134518 16 348 0.0 0.0 0.00 0.23 0.20 57 1006.3
20260507133012 16 348 0.0 0.0 0.00 0.23 0.20 65 1006.4
20260507131512 14 348 0.0 0.0 0.00 0.23 0.20 71 1006.7
20260507130004 12 348 0.0 0.0 0.00 0.23 0.20 79 1006.8
20260507124503 11 348 0.0 0.0 0.00 0.23 0.20 84 1006.7
20260507123106 10 358 0.0 0.0 0.00 0.23 0.20 85 1006.6
20260507123001 10 358 0.0 0.0 0.00 0.23 0.20 85 1006.7
20260507121601 9 131 0.0 0.0 0.00 0.23 0.20 87 1006.5
20260507120057 9 131 0.0 0.0 0.00 0.23 0.20 88 1006.6
20260507114556 9 131 0.0 0.0 0.00 0.23 0.20 88 1006.4
20260507113128 8 131 0.0 0.0 0.00 0.23 0.20 89 1006.4
20260507111555 8 131 0.0 0.0 0.03 0.23 0.20 90 1006.2
20260507110052 8 131 0.0 0.0 0.03 0.23 0.20 89 1006.4
20260507104600 8 131 0.0 0.0 0.05 0.23 0.20 89 1006.4
20260507103048 8 131 0.0 0.0 0.10 0.23 0.20 89 1006.2
20260507101553 8 131 0.0 0.0 0.13 0.20 0.18 88 1006.1
20260507100055 8 131 0.0 0.0 0.10 0.18 0.15 87 1005.9
20260507094543 9 131 0.0 0.0 0.10 0.18 0.15 86 1005.8
20260507093040 9 131 0.0 0.0 0.08 0.13 0.10 85 1005.8
20260507091542 10 131 0.0 0.0 0.03 0.08 0.05 85 1005.9
20260507090036 10 131 0.0 0.0 0.03 0.08 0.05 85 1005.8
20260507084545 10 131 0.0 0.0 0.05 0.08 0.05 85 1005.4
20260507083029 10 131 0.0 0.0 0.03 0.05 0.03 84 1005.0
20260507081526 10 131 0.0 0.0 0.03 0.05 0.03 84 1005.4
20260507080024 11 131 0.0 0.0 0.03 0.05 0.03 82 1005.3
20260507074519 11 131 0.0 0.0 0.00 0.03 0.00 83 1005.0
20260507073023 11 340 0.0 0.0 0.00 0.03 0.00 82 1004.9
20260507071518 11 327 0.0 0.0 0.00 0.03 0.00 83 1004.8
20260507070020 11 332 0.0 0.0 0.00 0.03 0.00 86 1004.9
20260507064547 11 350 0.0 0.0 0.00 0.03 0.00 88 1004.8
20260507063050 11 352 0.0 0.0 0.00 0.03 0.00 88 1004.4
20260507061513 11 352 0.0 0.0 0.00 0.03 0.00 89 1004.9
20260507060010 11 352 0.0 0.0 0.00 0.03 0.00 90 1004.8
20260507054506 12 131 0.0 0.0 0.00 0.03 0.00 91 1004.9
20260507053005 12 131 0.0 0.0 0.00 0.03 0.00 91 1004.5
20260507051607 13 131 0.0 0.0 0.00 0.03 0.00 92 1004.8
20260507050110 13 333 0.0 0.0 0.00 0.03 0.00 93 1004.6
20260507044557 13 320 0.0 0.0 0.00 0.03 0.00 93 1004.4
20260507043053 13 131 0.0 0.0 0.00 0.03 0.00 93 1004.5
20260507041552 13 131 0.0 0.0 0.00 0.03 0.00 93 1004.8
20260507040149 13 257 0.0 0.0 0.00 0.03 0.00 93 1004.7
20260507034547 13 131 0.0 0.0 0.00 0.03 0.03 93 1004.7
20260507033048 13 131 0.0 0.0 0.00 0.03 0.03 93 1004.3
20260507031545 13 131 0.0 0.0 0.00 0.03 0.03 93 1004.0
20260507030046 13 131 0.0 0.0 0.00 0.03 0.03 93 1004.1
20260507024545 13 131 0.0 0.0 0.00 0.03 0.03 92 1004.3
20260507023039 13 131 0.0 0.0 0.00 0.03 0.03 92 1004.3
20260507021550 13 131 0.0 0.0 0.00 0.03 0.03 92 1004.2
20260507020037 13 131 0.0 0.0 0.00 0.03 0.03 92 1004.4
20260507014534 13 131 0.0 0.0 0.00 0.03 0.03 92 1004.6
20260507013036 13 131 0.0 0.0 0.00 0.03 0.03 92 1004.7
20260507011537 13 131 0.0 0.0 0.00 0.03 0.03 92 1004.7
20260507010041 13 131 0.0 0.0 0.00 0.03 0.03 92 1004.7
20260507004530 13 131 0.0 0.0 0.00 0.03 0.03 92 1004.8
20260507003029 13 131 0.0 0.0 0.03 0.03 0.03 92 1004.6
20260507001533 13 131 0.0 0.0 0.03 0.03 0.03 92 1004.6
20260507000033 13 131 0.0 0.0 0.03 0.03 0.03 92 1004.7
20260506234524 13 131 0.0 0.0 0.03 0.03 0.03 91 1004.5
20260506233023 13 131 0.0 0.0 0.00 0.00 0.00 91 1004.7
20260506231525 13 131 0.0 0.0 0.00 0.00 0.00 91 1004.7
20260506230022 13 131 0.0 0.0 0.00 0.00 0.00 91 1004.8
20260506224518 13 131 0.0 0.0 0.00 0.00 0.00 90 1004.8
20260506223018 14 221 0.0 0.0 0.00 0.00 0.00 90 1005.1
20260506221514 14 150 0.0 0.0 0.00 0.00 0.00 90 1005.4
20260506220022 14 147 0.0 0.0 0.00 0.00 0.00 89 1005.4
20260506214544 14 232 0.0 0.0 0.00 0.00 0.00 89 1005.5
20260506213042 15 131 0.0 0.0 0.00 0.00 0.00 88 1005.6
20260506211539 15 131 0.0 0.0 0.00 0.00 0.00 86 1005.8
20260506210041 16 268 0.0 0.0 0.00 0.00 0.00 82 1005.9
20260506204550 16 260 0.0 0.0 0.00 0.00 0.00 81 1006.0
20260506203038 16 251 0.0 0.0 0.00 0.00 0.00 81 1005.8
20260506201539 16 218 0.0 0.0 0.00 0.00 0.00 80 1005.6
20260506200035 16 83 0.0 0.0 0.00 0.00 0.00 79 1006.0
20260506194534 16 214 0.0 0.0 0.00 0.00 0.00 76 1006.1
20260506193032 17 274 0.0 0.0 0.00 0.00 0.00 72 1006.0
20260506191531 17 242 0.0 0.0 0.00 0.00 0.00 71 1005.9
20260506190027 17 188 0.0 0.0 0.00 0.00 0.00 72 1006.1
20260506184526 17 302 0.0 0.0 0.00 0.00 0.00 72 1006.0
20260506183024 17 226 0.0 0.0 0.00 0.00 0.00 70 1006.1
20260506181527 18 241 0.0 0.0 0.00 0.00 0.00 69 1006.3
20260506180017 18 223 0.0 0.0 0.00 0.00 0.00 67 1006.7
20260506174517 19 120 0.0 0.0 0.00 0.00 0.00 66 1006.5
20260506173015 18 263 0.0 0.0 0.00 0.00 0.00 68 1006.6
20260506171522 17 182 0.0 0.0 0.00 0.00 0.00 71 1006.8
20260506170011 17 270 0.0 0.0 0.00 0.00 0.00 71 1006.9
20260506164510 18 112 0.0 0.0 0.00 0.00 0.00 70 1007.0
20260506163007 17 221 0.0 0.0 0.00 0.00 0.00 71 1007.3
20260506161508 17 152 0.0 0.0 0.00 0.00 0.00 70 1007.5
20260506160002 18 202 0.0 0.0 0.00 0.00 0.00 68 1007.8
20260506154502 19 126 0.0 0.0 0.00 0.00 0.00 64 1008.0
20260506153058 20 225 0.0 0.0 0.00 0.00 0.00 65 1008.2